Skip Page Navigation
NASA JPL Caltech
NASA Logo - Jet Propulsion Laboratory + View the NASA Portal
+ Near-Earth Object (NEO) Program
Search JPL
JPL Home Earth Solar System Stars & Galaxies Technology
JPL Solar System Dynamics
BODIES ORBITS EPHEMERIDES TOOLS PHYSICAL DATA DISCOVERY FAQ SITE MAP
JPL Small-Body Database Browser
Search: [ help ]  
2635 Huggins (1982 DS)
Classification: Main-belt Asteroid          SPK-ID: 2002635
Ephemeris | Orbit Diagram | Orbital Elements | Physical Parameters | Discovery Circumstances ]

[ hide orbit diagram ]
Orbit Diagram
Note: Make sure you have Java enabled on your browser to see the applet. This applet is provided as a 3D orbit visualization tool. The applet was implemented using 2-body methods, and hence should not be used for determining accurate long-term trajectories (over several years or decades) or planetary encounter circumstances. For accurate long-term ephemerides, please instead use our Horizons system.
Orbit Viewer

Additional Notes: the orbits shown in the applet are color coded. The planets are white lines, and the asteroid/comet is a blue line. The bright white line indicates the portion of the orbit that is above the ecliptic plane, and the darker portion is below the ecliptic plane. Likewise for the asteroid/comet orbit, the light blue indicates the portion above the ecliptic plane, and the dark blue the portion below the ecliptic plane.

Orbit Viewer applet originally written and kindly provided by Osamu Ajiki (AstroArts), and further modified by Ron Baalke (JPL).


Orbital Elements at Epoch 2456400.5 (2013-Apr-18.0) TDB
Reference: JPL 1 (heliocentric ecliptic J2000)
 Element Value Uncertainty (1-sigma)   Units 
e .07877644642299472 6.4726e-08  
a 2.231633103217254 9.4903e-09 AU
q 2.055832977625879 1.4491e-07 AU
i 4.168607437908843 5.7339e-06 deg
node 276.9813256534762 8.9897e-05 deg
peri 271.4064322116522 9.826e-05 deg
M 106.4553932541942 3.7609e-05 deg
tp 2456040.421005549088
(2012-Apr-22.92100555)
0.00012728 JED
period 1217.67844765555
3.33
7.7675e-06
2.127e-08
d
yr
n .2956445527085775 1.8859e-09 deg/d
Q 2.40743322880863 1.0238e-08 AU
  Orbit Determination Parameters
   # obs. used (total)      1166  
   data-arc span      28558 days (78.19 yr)  
   first obs. used      1935-02-02  
   last obs. used      2013-04-11  
   planetary ephem.      DE405  
   SB-pert. ephem.      SB405-CPV-2  
   condition code      0  
   fit RMS      .55686  
   data source      ORB  
   producer      Otto Matic  
   solution date      2013-Apr-29 12:53:19  

Additional Information
 Earth MOID = 1.06138 AU 
 T_jup = 3.634 
[ show covariance matrix ]

Ephemeris | Orbit Diagram | Orbital Elements | Physical Parameters | Discovery Circumstances ]

Physical Parameter Table
Parameter Symbol Value Units Sigma Reference Notes
absolute magnitude H 12.9 mag n/a PDS3 (MPC 17266)  
rotation period rot_per 9.400 h n/a Asteroid Lightcurve DataBase (Rev. 2013-May-01) Published Reference List:
[Mazzone, F. (2012) www.astrosurf.com/salvador/Fotometria.html]
SMASSII spectral type spec_B S   n/a EAR-A-5-DDR-TAXONOMY-V4.0 based on a high-resolution spectrum by Xu et al. (1995) or Bus and Binzel (2002)

2635 Huggins (1982 DS)          Discovered 1982-Feb-21 by Bowell, E. at Flagstaff (AM) (688)
Discovered at the Anderson Mesa station, which is operated by the Lowell Observatory.
Reference: DISCOVERY.DBLast Updated: 2003-08-29

Alternate Designations
 1982 DS = 1935 CB = 1942 FM = 1952 FZ = 1952 HP = 1953 PW = 1953 RS = 1957 WS = 1970 RQ = 1975 AB1 
Ephemeris | Orbit Diagram | Orbital Elements | Physical Parameters | Discovery Circumstances ]
ABOUT SSD CREDITS/AWARDS PRIVACY/COPYRIGHT GLOSSARY LINKS
FirstGov 2013-May-22 15:36 UT
(server date/time)  
NASA Home Page
Site Manager:   Donald K. Yeomans
Webmaster  Alan B. Chamberlin